Regional Weather Roundup
Issued by NWS

Home | Current Version | Previous Version | Graphics & Text | Print | Product List | Glossary On
Versions: 1 2 3 4 5 6 7 8 9 10 11 12 13 14 15 16 17 18 19 20 21 22 23 24 25 26 27 28 29 30 31 32 33 34 35 36 37 38 39 40 41 42 43 44 45 46 47 48 49 50
000
ASUS43 KIND 220659
RWRIN

WEATHER ROUNDUP FOR INDIANA
NATIONAL WEATHER SERVICE INDIANAPOLIS IN
200 AM EST MON DEC 22 2014

NOTE: "FAIR" INDICATES FEW OR NO CLOUDS BELOW 12,000 FEET WITH NO
SIGNIFICANT WEATHER AND/OR OBSTRUCTIONS TO VISIBILITY.

* - STATION DOES NOT REPORT WEATHER SUCH AS PRECIPITATION OR FOG.

+ - STATION NOT QUALITY CONTROLLED BY THE NATIONAL WEATHER SERVICE.
    USE DATA WITH CAUTION...ESPECIALLY DEWPOINT AND RELATIVE
    HUMIDITY OBSERVATIONS.

INZ001>003-010>013-019-020-220800-
NORTHWEST INDIANA

CITY           SKY/WX    TMP DP  RH WIND       PRES   REMARKS
VALPARAISO     NOT AVBL

$$

LMZ046-743>745-220800-
SOUTHERN LAKE MICHIGAN

STATION/POSITION TIME  TEMP WIND        PRES
                       AIR  DIR/SP/G
                 (UTC) (F)  (DEG/KT/KT) (MB)

$$

INZ004-005-014>016-021>024-220800-
NORTH CENTRAL INDIANA

CITY           SKY/WX    TMP DP  RH WIND       PRES   REMARKS
GOSHEN         PTCLDY    29  24  82 SE12      30.06F WCI  19
SOUTH BEND     CLEAR     31  25  78 SE10      30.06F WCI  22

$$

INZ006>009-017-018-025>027-220800-
NORTHEAST INDIANA

CITY           SKY/WX    TMP DP  RH WIND       PRES   REMARKS
ANGOLA *+      CLEAR     27  21  80 SE6       30.08F WCI  20
FORT WAYNE     MOCLDY    25  22  88 E6        30.09F FOG     WCI  18

$$

INZ028-029-035-036-043>045-051>053-220800-
WEST CENTRAL INDIANA

CITY           SKY/WX    TMP DP  RH WIND       PRES   REMARKS
GREENCASTLE +  CLEAR     28  23  80 E6        30.01F WCI  22
LAFAYETTE      CLEAR     27  24  89 E8        30.02F WCI  19
TERRE HAUTE    CLEAR     28  24  85 E5        30.01F WCI  23

$$

INZ030>032-037>040-046>048-054>057-064-065-220800-
CENTRAL INDIANA

CITY           SKY/WX    TMP DP  RH WIND       PRES   REMARKS
INDIANAPOLIS   MOCLDY    27  24  89 E7        30.02F WCI  19
-EAGLE CREEK   PTCLDY    28  24  85 SE7       30.02F WCI  21
KOKOMO *+      PTCLDY    27  23  86 SE6       30.05F WCI  20
MT COMFORT *+  PTCLDY    28  27  93 E6          N/A  WCI  22
SHELBYVILLE    PTCLDY    30  25  81 E9        30.03F WCI  22

$$

INZ033-034-041-042-049-050-058-059-220800-
EAST CENTRAL INDIANA

CITY           SKY/WX    TMP DP  RH WIND       PRES   REMARKS
MUNCIE         PTCLDY    29  25  85 SE7       30.06F WCI  22

$$

INZ060-061-067>069-081>083-085>088-220800-
SOUTHWEST INDIANA

CITY           SKY/WX    TMP DP  RH WIND       PRES   REMARKS
EVANSVILLE     CLOUDY    35  28  75 E6        29.99F WCI  30
HUNTINGBURG *+ CLEAR     34  27  75 SE7       30.00F WCI  28

$$

INZ062-063-066-070>080-084-089>092-220800-
SOUTH CENTRAL AND SOUTHEAST INDIANA

CITY           SKY/WX    TMP DP  RH WIND       PRES   REMARKS
BLOOMINGTON    CLEAR     29  26  89 SE6       30.01F WCI  23

$$



USA.gov is the U.S. government's official web portal to all federal, state and local government web resources and services.